Theta_e
321 315 316 319 327 331 334 334 329 331 329 327 327 334 339 333 338 340 319 318 320 320 321 324 325 326 326 325 324 325 325 325 325 325 324 325 326 327 328 329 330 331 332 334 334 334 336 335 335
316 314 316 320 326 328 333 331 334 331 328 326 326 326 328 330 326 323 321 316 318 319 321 323 324 324 324 323 322 321 321 320 320 320 321 321 322 323 323 323 323 324 326 328 329 329 330 332 333
315 313 322 324 325 325 330 331 332 328 325 324 324 322 323 327 324 323 315 313 316 318 320 322 323 323 322 321 320 319 319 318 317 316 317 317 318 319 319 320 320 321 321 321 322 322 323 326 328
315 318 320 325 325 325 328 330 327 327 324 322 323 323 318 315 322 318 313 312 315 316 319 320 321 320 319 318 317 316 315 315 314 313 313 313 313 314 314 315 315 316 316 317 317 319 320 321 321
315 320 323 325 325 323 322 326 326 327 324 323 322 322 321 315 315 313 312 311 312 313 316 318 318 317 317 315 314 313 312 312 311 310 310 310 310 310 310 310 311 312 312 312 312 313 314 316 318
321 320 322 323 323 321 321 324 322 321 319 322 322 321 320 315 314 312 311 311 311 310 310 310 312 313 312 310 309 308 309 309 309 308 306 305 306 307 307 308 309 309 309 309 309 310 310 311 311
321 321 322 322 322 321 321 318 320 319 321 322 320 322 318 316 313 311 310 310 310 309 309 308 306 305 305 303 304 306 306 306 305 305 304 304 303 303 303 304 305 305 306 306 306 307 308 308 306
318 321 320 321 321 322 318 316 316 319 319 317 319 320 320 317 312 310 309 309 308 308 308 307 306 304 304 304 302 305 305 304 303 301 301 301 301 300 300 300 299 300 302 301 303 304 304 303 301
314 321 320 320 320 320 315 315 312 311 317 318 318 318 316 315 311 310 309 309 308 307 306 305 303 303 303 304 305 304 302 301 300 300 299 300 300 299 299 298 297 297 297 297 300 301 299 299 302
320 320 319 318 319 318 315 315 313 314 316 318 317 315 315 313 311 311 310 310 309 307 305 303 303 304 304 304 303 302 301 300 299 299 299 299 298 297 297 297 296 297 297 297 298 298 299 299 300
317 318 316 315 315 314 315 313 313 314 317 316 318 317 315 313 312 312 311 310 309 306 304 303 303 304 304 303 302 301 300 300 299 298 297 297 297 297 297 296 296 296 296 296 296 297 297 298 298
315 314 314 315 314 312 314 313 312 313 316 313 316 317 315 315 313 313 311 309 307 305 303 302 303 303 302 302 301 300 299 299 298 297 296 296 296 296 295 295 295 295 295 295 295 295 295 296 296
315 314 313 312 312 311 311 313 313 312 312 311 316 316 316 315 314 313 311 309 307 304 302 304 303 302 301 301 300 300 299 298 297 296 295 294 294 294 294 294 293 293 293 294 293 294 294 294 295
312 313 312 311 312 311 312 312 310 313 311 314 316 317 316 316 314 313 311 308 306 304 303 303 303 302 301 300 300 299 298 297 296 295 294 293 293 293 292 292 292 292 292 292 292 293 293 293 294
312 314 313 313 312 313 312 314 313 312 312 314 316 317 316 316 314 313 311 309 307 304 304 303 302 301 300 300 299 298 297 296 295 294 294 292 291 291 291 291 291 291 291 291 291 292 291 292 292
313 313 314 313 312 311 312 314 313 312 312 314 315 317 316 316 314 313 311 309 307 304 303 303 302 301 300 299 298 297 296 295 294 293 293 292 290 290 290 290 290 290 290 290 291 291 291 291 291
313 314 314 314 312 311 312 314 313 310 312 313 315 316 316 316 314 313 311 309 307 304 303 304 302 301 300 298 297 296 295 294 293 293 292 291 290 289 289 289 289 289 289 289 290 290 290 290 291
316 313 314 316 313 310 312 313 313 310 311 313 314 315 316 316 315 313 311 309 306 303 304 304 302 301 299 298 297 296 295 294 293 292 291 290 289 288 288 288 288 288 288 289 289 289 289 290 290
313 314 315 314 311 312 314 314 314 313 311 313 313 315 316 316 315 313 311 308 305 303 303 303 302 300 299 298 298 297 295 294 293 291 290 289 288 288 287 287 287 288 288 288 288 288 289 289 290
313 315 316 314 310 311 315 315 315 314 313 312 313 314 315 315 315 313 310 307 305 303 303 303 303 300 298 296 295 294 293 292 291 290 289 288 287 287 287 287 287 287 287 287 287 288 288 289 289
313 314 315 314 311 310 311 315 316 315 313 312 312 313 314 315 315 312 310 307 305 304 303 303 302 299 296 294 293 292 291 291 291 290 289 288 287 286 286 286 286 286 286 286 286 287 287 288 288
317 312 311 312 314 318 311 321 319 317 313 310 310 311 313 314 314 313 310 308 306 304 303 303 301 298 295 293 292 291 291 291 290 288 287 287 286 286 285 285 285 285 285 286 286 286 286 286 287
315 309 311 312 314 314 315 317 319 314 317 317 312 311 310 313 314 313 311 309 306 304 303 303 300 296 293 292 291 290 290 289 288 287 286 286 286 285 285 285 284 285 285 285 285 285 285 285 286
309 312 313 313 314 321 317 317 319 320 316 313 311 312 309 311 313 313 310 309 307 304 303 302 298 294 292 290 289 289 288 288 287 287 286 286 285 285 284 284 284 284 284 284 284 284 284 285 285
312 315 324 325 324 322 312 315 318 317 311 313 311 311 310 310 311 312 311 309 306 304 302 300 296 293 291 289 288 287 287 286 286 285 285 284 284 284 284 283 283 283 283 283 283 283 284 284 285
313 316 335 328 328 322 309 318 318 311 308 309 309 309 310 310 310 311 310 308 306 304 301 297 294 292 289 288 287 286 286 285 285 284 284 283 283 283 283 282 283 282 282 283 283 283 283 283 284
313 314 313 316 310 318 319 316 314 309 310 308 310 310 310 310 310 310 310 309 306 302 298 295 292 290 288 286 286 285 285 284 283 283 283 283 282 282 282 282 282 282 282 282 282 282 282 283 283
311 311 315 316 325 322 320 318 322 313 312 310 311 312 310 310 310 310 309 306 302 298 293 291 289 288 286 285 285 284 283 283 283 282 282 282 282 282 281 281 281 281 281 282 281 282 282 282 282
310 312 311 314 316 324 323 321 316 315 313 311 311 312 310 310 310 309 306 300 296 292 290 288 287 286 285 284 284 283 283 282 282 282 282 282 281 281 281 281 281 281 281 281 281 281 281 281 282
312 313 313 319 319 315 316 322 308 309 309 309 310 311 310 309 308 304 299 294 291 290 288 287 286 285 284 283 282 282 282 282 282 282 281 281 281 281 281 280 280 280 280 280 280 280 280 281 281
Wind_Speed
5 2 3 0 3 2 3 4 1 7 6 1 2 2 2 8 3 2 7 5 5 7 9 10 15 15 15 17 19 19 19 19 20 19 19 19 19 18 18 18 18 17 17 18 18 19 19 16 15
9 5 3 1 1 4 4 5 8 5 8 10 8 5 2 4 4 10 7 5 5 7 9 10 13 13 15 17 19 20 20 20 20 20 20 20 20 19 19 19 19 18 17 18 18 18 19 18 18
4 4 1 1 2 3 3 8 8 8 11 4 4 3 3 6 6 8 6 6 7 8 9 11 12 14 15 17 18 19 19 19 20 20 20 20 20 19 19 19 19 18 19 19 19 18 19 19 18
2 3 3 4 3 2 2 9 6 13 4 2 3 5 5 3 7 6 8 7 8 9 10 12 13 14 15 16 18 18 19 19 19 20 20 20 20 19 19 20 20 20 20 20 20 20 20 20 20
1 3 3 3 3 2 3 8 11 13 5 8 7 7 6 5 9 10 9 8 8 9 10 10 12 14 15 16 17 18 19 19 19 19 19 20 20 20 19 20 21 21 21 21 21 21 21 21 21
3 2 6 8 4 4 5 9 10 10 8 8 6 10 6 12 12 10 9 9 9 10 9 9 11 14 14 15 15 16 17 17 18 18 18 19 18 19 19 19 20 21 21 22 22 23 22 22 22
2 3 7 5 4 6 8 10 12 10 8 9 5 9 6 14 11 11 10 10 10 9 9 9 10 11 11 12 13 14 14 15 16 17 18 18 18 18 18 19 20 21 20 21 21 22 22 23 23
1 2 4 5 7 7 10 10 4 11 10 5 6 5 5 19 16 13 11 11 10 9 9 9 9 9 10 10 11 11 13 14 15 16 18 18 18 19 19 20 21 21 20 23 22 23 23 25 26
0 5 9 7 8 5 12 12 6 2 8 6 8 2 3 26 21 17 14 11 10 9 8 8 8 8 8 8 9 10 12 14 16 17 19 15 15 16 17 19 23 24 24 25 22 22 25 26 20
5 5 8 3 7 5 13 12 12 8 11 9 9 4 14 25 23 20 17 14 11 10 8 8 8 7 6 6 7 8 10 11 14 16 18 17 17 18 19 19 22 21 22 21 22 21 21 19 21
3 8 3 4 4 3 11 11 10 9 11 13 16 15 21 25 22 20 17 15 13 11 9 8 7 6 5 5 5 7 8 10 12 15 18 16 16 17 18 19 20 21 22 21 23 22 21 23 22
5 4 3 3 5 6 8 7 7 14 8 2 9 20 24 22 22 21 18 16 15 12 11 9 7 5 6 5 6 7 9 10 12 14 17 16 16 18 19 19 21 21 21 22 22 23 25 25 25
6 4 4 3 6 4 5 9 8 13 10 4 10 18 20 20 22 20 18 16 15 14 12 9 8 6 5 6 6 7 9 10 12 14 15 16 17 18 19 20 20 21 21 22 24 24 24 26 26
1 2 2 3 6 5 7 6 4 6 11 10 15 19 19 20 25 21 19 18 16 15 14 11 9 7 6 5 6 7 8 10 11 12 12 15 16 17 18 19 20 20 20 20 22 23 24 26 26
4 3 3 8 7 4 4 11 16 8 13 14 16 17 18 20 24 24 23 20 19 16 15 12 10 7 6 5 5 5 7 8 9 11 12 14 16 16 18 18 19 19 20 21 21 22 22 23 25
3 3 4 5 10 4 7 13 6 14 15 16 17 16 17 20 25 23 22 20 18 17 17 14 10 8 6 4 3 3 5 7 7 10 12 14 16 15 17 18 18 18 20 20 20 21 22 23 25
5 7 9 4 12 5 13 9 3 10 15 17 18 18 18 19 22 24 23 22 21 19 18 15 12 9 7 4 3 2 5 6 7 10 12 14 15 16 17 17 17 18 19 19 19 21 21 24 26
9 7 7 8 8 10 12 21 10 9 15 18 18 19 20 21 23 27 25 23 20 18 17 15 12 10 7 6 3 0 2 5 7 10 11 14 15 16 16 17 17 18 18 19 19 21 22 22 25
3 8 9 3 4 8 17 22 19 16 16 18 19 20 21 23 24 26 25 23 20 19 18 16 14 11 8 6 4 3 3 6 8 11 12 15 15 16 16 17 18 18 18 20 20 21 22 21 21
8 10 13 3 5 7 11 21 20 19 25 25 24 23 23 21 20 25 27 25 23 22 20 17 15 12 9 6 4 2 4 5 9 11 14 16 17 17 16 17 18 17 19 19 19 19 21 20 19
14 16 12 8 3 7 9 16 17 14 21 20 22 22 22 24 24 22 27 28 25 23 22 19 16 13 10 7 4 2 4 7 10 13 16 16 18 17 17 18 18 19 19 19 19 19 19 22 20
15 10 6 5 4 7 2 9 9 9 12 12 16 20 22 22 21 21 26 27 27 25 21 18 16 14 10 7 3 2 5 9 11 14 16 19 17 18 17 17 17 18 19 20 19 19 20 20 22
2 6 7 3 6 4 8 7 4 2 12 15 15 18 21 21 22 22 25 30 28 24 21 18 16 13 10 7 4 3 6 9 12 14 17 18 17 17 17 17 17 18 19 19 20 21 20 20 22
15 7 5 3 2 7 13 12 10 7 8 3 3 13 17 19 19 19 26 26 25 22 20 18 17 13 10 6 4 4 7 10 13 16 18 18 19 18 17 17 18 19 20 20 21 21 21 22 22
5 8 4 4 5 8 4 7 14 7 5 3 1 6 14 17 18 18 19 23 23 23 20 18 17 14 10 7 4 4 7 10 13 16 17 19 19 19 19 19 19 20 21 22 22 22 22 23 23
15 10 5 7 5 2 3 9 6 1 2 6 2 3 12 16 17 18 19 23 23 22 20 18 17 13 9 5 3 5 8 10 13 15 18 18 19 19 20 21 22 23 22 23 22 23 23 22 23
9 10 2 3 1 3 7 9 13 8 8 7 9 7 11 15 16 16 18 21 21 19 19 17 15 10 6 2 4 7 9 11 13 16 17 17 19 20 22 22 23 23 23 23 23 23 23 23 23
4 10 5 4 6 8 6 6 11 5 11 13 12 11 11 14 15 15 15 20 18 18 17 15 11 8 4 1 4 7 10 11 13 15 17 18 20 21 22 23 23 24 24 24 24 24 23 23 24
6 7 5 3 4 6 8 6 4 6 7 13 12 10 12 15 15 15 15 18 20 20 18 15 10 6 2 2 5 8 10 12 14 15 17 19 21 22 23 24 25 25 25 25 25 25 25 24 24
11 12 15 7 8 4 3 8 3 2 3 5 12 10 11 14 14 13 17 20 19 17 15 12 8 4 0 3 6 8 10 12 14 16 18 20 22 22 24 25 25 26 25 25 25 25 24 24 24
Wind_Direction
357 6 84 271 225 97 119 164 175 146 168 121 116 230 88 31 1 31 123 75 66 55 46 45 53 56 52 54 56 55 54 49 47 43 42 38 36 31 28 25 23 15 12 8 3 1 2 356 342
345 20 65 163 240 213 152 159 186 146 115 118 107 128 103 89 63 117 136 96 80 67 60 57 63 62 61 58 58 57 54 52 50 46 43 41 36 34 32 29 26 17 14 12 7 1 355 351 347
343 29 306 233 215 259 145 180 149 142 144 159 117 28 105 118 126 120 116 114 103 82 74 71 72 72 68 64 61 58 56 53 49 46 43 41 37 32 30 27 25 21 17 12 6 1 355 350 345
336 198 157 252 239 101 99 162 151 149 165 148 152 131 113 70 139 129 135 124 119 97 86 78 76 74 70 65 62 59 56 53 50 45 43 39 36 32 28 24 21 18 14 11 7 2 357 354 348
248 243 225 224 188 152 165 161 171 173 149 160 186 157 134 129 128 131 133 128 121 106 96 86 81 76 70 66 63 60 56 53 50 46 42 39 35 29 25 23 18 14 9 7 3 0 355 351 347
215 261 236 239 197 168 179 176 176 187 166 153 190 157 133 146 147 138 133 126 120 114 105 96 86 77 72 67 62 59 56 51 46 40 33 29 27 24 21 18 13 10 5 3 359 356 352 348 344
281 245 257 263 213 194 187 173 196 192 179 190 134 171 121 169 157 143 138 131 122 118 111 100 90 82 74 71 66 62 54 42 32 24 20 17 14 13 12 11 6 3 359 355 352 349 345 341 337
158 245 207 229 209 219 178 174 219 199 187 101 176 187 174 174 160 151 145 135 126 119 111 102 95 89 82 74 64 48 37 33 30 27 22 15 15 11 5 4 359 356 356 349 348 345 341 334 330
211 221 234 217 190 201 166 185 170 119 147 184 177 229 96 159 159 158 154 145 133 119 110 107 103 96 86 74 52 43 40 33 30 25 18 16 7 3 360 354 354 351 348 345 343 339 334 330 332
228 241 240 219 199 193 178 198 169 180 175 198 186 149 152 160 166 169 170 162 155 139 124 117 112 107 91 70 61 53 41 35 30 21 14 8 2 358 356 350 348 346 342 342 338 336 335 332 325
190 246 206 204 198 198 183 199 179 204 211 209 203 170 165 170 176 178 177 171 162 151 140 135 130 118 100 94 78 52 37 30 23 17 11 4 357 352 348 344 342 339 337 336 333 330 327 323 319
223 226 210 160 188 172 186 168 204 213 230 231 207 171 169 177 181 181 176 169 160 156 154 152 144 131 122 105 76 57 43 31 21 12 4 0 354 349 346 341 337 335 333 329 328 324 322 318 315
231 183 196 176 181 208 160 202 215 221 207 175 161 167 177 181 182 183 180 171 164 164 164 162 155 150 133 104 81 59 41 26 15 5 359 358 352 345 340 336 335 332 330 329 326 322 319 315 312
87 185 173 193 187 189 209 209 215 223 176 166 168 179 183 185 183 179 179 175 176 173 171 168 164 160 139 113 79 53 35 20 9 359 354 353 349 341 337 334 332 329 326 322 318 315 314 310 308
131 214 227 208 197 211 214 244 230 207 182 183 189 187 187 191 187 189 185 183 181 179 174 174 170 166 150 113 77 59 32 16 4 352 346 349 347 339 336 329 326 322 320 318 314 310 308 306 305
210 237 242 159 177 173 200 252 241 188 183 199 197 193 193 195 195 195 189 187 184 179 181 178 177 171 154 125 97 71 25 11 355 347 343 342 340 336 332 324 320 317 315 311 308 309 310 308 305
206 250 225 240 202 164 204 264 190 188 201 206 202 200 199 197 200 197 193 190 186 184 182 182 179 175 163 159 149 82 10 4 351 345 340 335 334 328 325 317 312 312 310 309 309 310 311 310 307
210 222 230 235 191 218 218 247 225 202 211 219 211 207 205 204 203 196 193 191 186 184 185 184 181 180 178 182 182 157 6 351 345 340 331 329 324 322 321 314 311 314 311 309 310 310 309 306 307
216 230 239 196 165 219 237 257 253 231 223 222 220 213 210 210 201 196 193 189 184 186 187 188 186 187 187 197 212 243 312 331 332 326 322 321 319 319 318 316 315 314 310 308 308 309 308 306 308
226 241 245 249 165 217 263 268 266 245 234 224 218 214 211 206 198 192 191 189 188 189 192 192 192 191 193 192 205 249 310 319 315 318 320 319 319 317 315 313 311 310 309 307 306 307 308 304 309
227 234 240 260 169 239 293 272 257 245 239 236 229 224 213 203 195 191 190 190 190 193 193 194 194 192 191 193 210 281 305 309 312 314 314 314 313 311 313 314 312 310 307 304 306 307 306 305 306
234 211 203 180 204 263 270 286 246 244 233 221 227 219 216 205 198 193 190 190 192 196 193 194 193 190 188 194 202 256 294 301 307 308 308 310 309 309 309 308 308 305 302 301 303 305 303 300 299
229 142 159 161 230 290 210 259 245 190 257 242 219 214 211 204 196 192 192 193 195 190 190 191 190 186 183 190 203 256 290 299 306 307 307 308 307 306 306 306 306 303 301 301 302 302 299 294 292
140 109 94 109 212 246 231 223 269 233 234 245 224 208 203 198 195 194 194 191 190 188 187 186 185 183 182 184 205 260 287 303 306 310 309 308 309 309 308 307 305 302 300 299 300 298 294 291 288
192 162 204 216 196 250 141 216 257 238 222 220 117 191 190 190 191 189 188 188 186 185 183 182 182 180 181 188 216 268 292 301 305 307 306 307 308 308 308 308 306 302 299 299 298 295 292 290 288
190 216 205 226 210 206 146 232 244 234 310 217 181 142 179 185 188 187 187 186 183 182 181 179 179 176 177 193 256 289 303 307 307 304 303 303 304 306 308 306 302 301 301 300 297 295 292 290 289
168 211 271 302 85 265 218 253 271 212 207 199 202 187 181 183 183 183 181 180 177 175 174 172 169 167 170 205 285 307 312 311 305 304 304 306 308 308 306 304 303 303 301 300 298 295 293 291 290
237 143 161 210 224 239 219 245 244 222 211 207 201 200 184 180 177 173 170 167 163 161 158 157 157 161 165 248 307 312 312 310 307 307 309 310 309 307 306 305 305 305 303 301 299 296 293 291 290
164 192 208 249 231 243 260 234 192 228 202 201 194 189 178 174 170 162 156 154 149 150 152 150 148 151 164 299 313 314 311 310 310 311 313 311 308 309 307 307 306 304 304 302 300 296 295 293 292
233 223 200 217 200 227 297 250 169 162 141 198 186 171 164 164 158 152 145 143 146 147 146 146 144 144 141 318 317 313 312 315 317 316 313 311 309 309 308 307 306 305 304 303 300 298 296 295 294